EcAMSat (43019 NORAD) Tracking and Keplerian Element Data

This shows tracking and keplerian element data for the satellite.

Feedback or suggestion? Click here.




ElementValue
Catalog43019
NameEcAMSat
Epoch Orbit30452
Epoch Day258.97357727
Epoch Year2021
RAAN113.7355
Inclination51.6373
Eccentricity0.0001176
Argument of Perigee264.9635
Mean Anonmoly95.1236
Mean Motion15.869861
Decay Rate0.00055629
L11 43019U 98067NG 21258.97357727 .00055629 00000-0 21188-3 0 9992
L22 43019 51.6373 113.7355 0001176 264.9635 95.1236 15.86986100304523

Live tracking and technical data element details for EcAMSat (NORAD 43019). EcAMSat can be tracked NOW for your location showing map with azimuth and elevation plus other details from your city location.

Track the satellite on the map from your city or location and see movement details for azimuth, elevation, latitude, longitude, range, height, and movement on the map or in text.







IsCatalogInMostPopularTable: catalog: 43019, numindb: 565
Update: records affected: 1



GetName: 43019 EcAMSat

Hit Count: updated at: Fri, 24 Sep 2021 18:47:32 GMT